Location: Caltech
(34.1382°N, 118.1253°W)
Time: 04:13:26
(UTC-07:00)

Cosmos 2360 Rocket - Visible Passes

Search period start: 24 May 2015 00:00
Search period end: 03 June 2015 00:00
Orbit: 832 x 847 km, 71.0° (Epoch: 23 May)

Date Brightness Start Highest point End Pass type
(mag) Time Alt. Az. Time Alt. Az. Time Alt. Az.
24 May 2.2 21:34:53 16° S 21:39:22 59° ESE 21:44:57 10° NNE visible
24 May 4.7 23:20:07 10° W 23:23:53 17° NW 23:27:27 10° NNW visible
25 May 2.3 21:18:17 10° S 21:23:45 55° ESE 21:29:18 10° NNE visible
25 May 4.7 23:04:15 10° W 23:08:12 18° NW 23:11:59 10° NNW visible
26 May 2.3 21:02:43 10° S 21:08:08 51° ESE 21:13:38 10° NNE visible
26 May 4.6 22:48:24 10° WSW 22:52:32 20° NW 22:56:29 10° NNW visible
27 May 2.4 20:47:10 10° S 20:52:31 47° ESE 20:57:57 10° NNE visible
27 May 4.6 22:32:34 10° WSW 22:36:51 21° WNW 22:40:59 10° N visible
28 May 2.5 20:31:37 10° S 20:36:54 44° ESE 20:42:17 10° NE visible
28 May 4.6 22:16:44 10° WSW 22:21:10 22° WNW 22:25:28 10° N visible
29 May 4.5 22:00:56 10° WSW 22:05:30 24° WNW 22:09:57 10° N visible
30 May 4.5 21:45:08 10° WSW 21:49:49 25° WNW 21:54:25 10° N visible
31 May 4.4 21:29:21 10° WSW 21:34:09 27° WNW 21:38:53 10° N visible
01 Jun 4.4 21:13:36 10° WSW 21:18:30 29° WNW 21:23:20 10° N visible
02 Jun 4.3 20:57:50 10° WSW 21:02:50 31° WNW 21:07:47 10° N visible
